[[{"header":{"parameterUnit":"m.s-1","parameterCategory":1,"la1":30.2991,"la2":30.254,"lo1":-89.0895,"lo2":-89.0444,"dy":0.0017,"dx":0.0017,"nx":28,"ny":28,"refTime":"2025-03-09T03:00:00:Z","depth":0,"parameterNumber":2,"parameterNumberName":"U-component_of_WINDS"},"data":[0,0,0,0,0,0,0,0,0,0,0,0,0,0,0,0,0,0,0,0,0,0,0,0,0,0,0,0,0,0,0,0,0,0,0,0,0,0,0,0,0,0,0,0,0,0,0,0,0,0,0,0,0,0,0,0,0,0,-2.5773,-2.5773,0,-2.5839,-2.584,-2.5841,-2.5815,-2.5813,-2.5811,-2.581,-2.588,-2.5883,-2.5886,0,0,0,0,0,0,0,0,0,0,0,0,0,-2.5625,-2.5627,-2.5772,-2.5773,-2.5774,-2.5839,-2.584,-2.5841,-2.5815,-2.5813,-2.5811,-2.5809,-2.5879,-2.5883,-2.5887,0,0,0,0,0,0,0,0,0,0,0,0,0,-2.569,-2.5628,-2.5772,-2.5769,-2.5769,-2.5839,-2.584,-2.5841,-2.5815,-2.5813,-2.5811,-2.5808,-2.5878,-2.5882,-2.5887,-2.5965,0,0,-2.5902,-2.5905,0,0,0,0,0,0,0,0,-2.5686,-2.5695,-2.5769,-2.5769,-2.577,-2.5816,-2.5813,-2.5883,-2.5816,-2.5798,-2.581,-2.5807,-2.5861,-2.5867,-2.5885,-2.5968,-2.5971,-2.5903,-2.5906,-2.5908,-2.5909,0,0,0,0,0,0,0,-2.5682,-2.5692,-2.5799,-2.577,-2.5771,-2.5765,-2.5771,-2.5826,-2.5842,-2.5799,-2.5798,-2.5806,-2.5861,-2.588,-2.5886,-2.5972,-2.5903,-2.5907,-2.591,-2.5912,-2.6123,-2.6126,0,0,0,0,0,0,-2.5677,-2.5689,-2.5797,-2.5801,-2.5721,-2.5769,-2.5777,-2.5804,-2.5841,-2.5844,-2.5808,-2.5804,-2.5872,-2.588,-2.5888,-2.5982,-2.5908,-2.5913,-2.5915,-2.612,-2.6124,-2.6126,0,0,0,0,0,0,-2.5674,-2.5687,-2.5794,-2.5744,-2.5758,-2.5774,-2.5805,-2.5806,-2.5825,-2.5847,-2.585,-2.5824,-2.5871,-2.5881,-2.5946,-2.5984,-2.5915,-2.5919,-2.6117,-2.6121,-2.6125,-2.617,0,0,0,0,0,0,-2.5669,-2.5686,-2.5715,-2.5745,-2.576,-2.585,-2.5807,-2.5809,-2.5834,-2.583,-2.5864,-2.5867,-2.587,-2.5939,-2.5951,-2.599,-2.5923,-2.6114,-2.6119,-2.6124,-2.6165,-2.6175,-2.6183,0,0,0,0,0,-2.5664,-2.5725,-2.5716,-2.573,-2.5797,-2.5852,-2.5861,-2.5863,-2.5837,-2.5867,-2.5881,-2.5866,-2.5978,-2.5945,-2.5959,-2.6,-2.6112,-2.6118,-2.6123,-2.6161,-2.6173,-2.6183,0,0,0,0,0,0,-2.5699,-2.5729,-2.572,-2.5792,-2.582,-2.5848,-2.5885,-2.5875,-2.5911,-2.5906,-2.5907,-2.5915,-2.5982,-2.5997,-2.5961,-2.6077,-2.6041,-2.605,-2.6065,-2.6077,-2.6086,-2.6081,-2.5927,0,0,0,0,0,-2.5715,-2.5757,-2.5781,-2.5842,-2.5857,-2.5869,-2.5893,-2.5892,-2.5921,-2.5933,-2.5951,-2.5981,-2.6023,-2.605,-2.609,-2.6167,-2.6175,-2.6202,-2.6211,-2.6218,-2.6226,-2.6269,-2.6282,-2.6146,-2.6146,-2.6146,0,0,-2.5749,-2.577,-2.5797,-2.585,-2.5871,-2.5916,-2.5879,-2.5927,-2.596,-2.594,-2.6002,-2.6017,-2.605,-2.6122,-2.6154,-2.6136,-2.6266,-2.6226,-2.6232,-2.6236,-2.6277,-2.629,-2.6301,-2.615,-2.6149,-2.6148,0,0,-2.5833,-2.5853,-2.5907,-2.5929,-2.5962,-2.5969,-2.5982,-2.6012,-2.6021,-2.6083,-2.607,-2.6109,-2.6181,-2.6205,-2.6227,-2.6321,-2.6309,-2.6333,-2.6382,-2.6423,-2.6434,-2.6444,-2.6478,-2.6491,-2.6341,-2.6341,-2.6341,0,-2.5871,-2.5936,-2.5936,-2.5985,-2.601,-2.5993,-2.6048,-2.607,-2.6114,-2.6132,-2.6111,-2.6201,-2.6222,-2.6299,-2.6322,-2.634,-2.6356,-2.633,-2.6432,-2.6442,-2.6451,-2.6484,-2.6497,-2.6344,-2.6344,-2.6344,-2.6343,0,-2.5982,-2.6028,-2.6067,-2.611,-2.6139,-2.6191,-2.6199,-2.6228,-2.6224,-2.6234,-2.6298,-2.6323,-2.6368,-2.6386,-2.6382,-2.6463,-2.6451,-2.6432,-2.6395,-2.6467,-2.6498,-2.6511,-2.6348,-2.6347,-2.6346,-2.6346,0,0,-2.609,-2.6132,-2.6147,-2.6167,-2.6202,-2.6238,-2.6289,-2.6332,-2.6358,-2.6389,-2.6433,-2.6494,-2.6476,-2.6501,-2.65,-2.6537,-2.6611,-2.6513,-2.6514,-2.6532,-2.6703,-2.6718,-2.6733,-2.6603,-2.6605,-2.6607,-2.67,0,-2.6178,-2.6268,-2.6269,-2.6353,-2.6395,-2.638,-2.6425,-2.6452,-2.6463,-2.6501,-2.6513,-2.6557,-2.653,-2.6545,-2.658,-2.6595,-2.6646,-2.6588,-2.6645,-2.6647,-2.6638,-2.6749,-2.6765,-2.6852,-2.6712,-2.6714,-2.6716,0,-2.6293,-2.6327,-2.6415,-2.6444,-2.6462,-2.6503,-2.6543,-2.6579,-2.661,-2.6615,-2.6643,-2.6637,-2.669,-2.6651,-2.6726,-2.6686,-2.671,-2.672,-2.6724,-2.673,-2.6687,-2.6759,-2.6879,-2.6893,-2.6735,-2.6733,-2.6732,0,-2.6365,-2.6433,-2.6495,-2.6512,-2.6547,-2.6576,-2.6593,-2.662,-2.6647,-2.6682,-2.6699,-2.674,-2.6763,-2.6795,-2.6801,-2.6772,-2.6876,-2.6837,-2.6883,-2.6883,-2.6906,-2.6905,-2.7033,-2.6919,-2.6919,-2.6919,-2.6919,0,-2.6463,-2.6518,-2.6527,-2.6565,-2.6626,-2.6627,-2.6687,-2.6701,-2.6726,-2.6767,-2.6756,-2.6795,-2.68,-2.684,-2.6845,-2.6906,-2.6916,-2.6923,-2.6924,-2.6924,-2.6924,-2.6941,-2.6935,-2.6922,-2.6922,-2.6921,-2.692,0,-2.6555,-2.6563,-2.6629,-2.6657,-2.6666,-2.6709,-2.6734,-2.677,-2.678,-2.6832,-2.6844,-2.6859,-2.6906,-2.6915,-2.697,-2.6973,-2.7047,-2.7041,-2.7037,-2.7036,-2.7082,-2.7078,-2.7226,-2.7246,-2.7119,-2.712,-2.7121,0,-2.6618,-2.6659,-2.6692,-2.6718,-2.6736,-2.6778,-2.6805,-2.6808,-2.6836,-2.6874,-2.6906,-2.6952,-2.6988,-2.7064,-2.7081,-2.7123,-2.7119,-2.7168,-2.7125,-2.7125,-2.7121,-2.7119,-2.7124,-2.7176,-2.7178,-2.7179,-2.718,0,-2.6729,-2.6731,-2.677,-2.681,-2.6842,-2.6874,-2.6904,-2.6927,-2.6933,-2.6966,-2.7013,-2.7042,-2.7098,-2.7144,-2.7186,-2.7203,-2.7194,-2.7193,-2.7206,-2.7208,-2.7204,-2.7208,-2.706,-2.719,-2.7189,-2.7188,-2.7188,-2.7187,-2.6809,-2.6845,-2.6874,-2.6918,-2.694,-2.6969,-2.7005,-2.7019,-2.7058,-2.7104,-2.7103,-2.7156,-2.7186,-2.7241,-2.7262,-2.7303,-2.7288,-2.7306,-2.7311,-2.7316,-2.7321,-2.7196,-2.7311,-2.7311,-2.731,-2.731,-2.731,0,-2.692,-2.6938,-2.6978,-2.7021,-2.7055,-2.7042,-2.7075,-2.7105,-2.7151,-2.7179,-2.7215,-2.727,-2.7315,-2.7335,-2.7379,-2.7408,-2.7405,-2.742,-2.7418,-2.7423,-2.7332,-2.7317,-2.7422,-2.7422,-2.7422,-2.7422,-2.7422,-2.7422,-2.6983,-2.7044,-2.705,-2.7123,-2.714,-2.7191,-2.7211,-2.7238,-2.7261,-2.7323,-2.7359,-2.7371,-2.7397,-2.7443,-2.7483,-2.7488,-2.7505,-2.7523,-2.7525,-2.744,-2.7429,-2.7418,-2.7404,-2.7526,-2.7526,-2.7613,-2.7614,-2.7614]},{"header":{"parameterUnit":"m.s-1","parameterCategory":1,"la1":30.2991,"la2":30.254,"lo1":-89.0895,"lo2":-89.0444,"dy":0.0017,"dx":0.0017,"nx":28,"ny":28,"refTime":"2025-03-09T03:00:00:Z","depth":0,"parameterNumber":3,"parameterNumberName":"V-component_of_WINDS"},"data":[0,0,0,0,0,0,0,0,0,0,0,0,0,0,0,0,0,0,0,0,0,0,0,0,0,0,0,0,0,0,0,0,0,0,0,0,0,0,0,0,0,0,0,0,0,0,0,0,0,0,0,0,0,0,0,0,0,0,-4.418,-4.418,0,-4.4177,-4.4177,-4.4177,-4.4118,-4.4117,-4.4115,-4.4114,-4.4111,-4.4112,-4.4113,0,0,0,0,0,0,0,0,0,0,0,0,0,-4.4133,-4.4134,-4.418,-4.418,-4.418,-4.4177,-4.4177,-4.4177,-4.4119,-4.4117,-4.4115,-4.4113,-4.411,-4.4112,-4.4114,0,0,0,0,0,0,0,0,0,0,0,0,0,-4.4144,-4.4134,-4.418,-4.415,-4.4147,-4.4177,-4.4177,-4.4177,-4.4119,-4.4117,-4.4114,-4.4112,-4.411,-4.4112,-4.4114,-4.4172,0,0,-4.412,-4.4121,0,0,0,0,0,0,0,0,-4.4143,-4.4146,-4.4154,-4.4152,-4.4149,-4.4146,-4.4159,-4.4175,-4.4119,-4.413,-4.4114,-4.4111,-4.4124,-4.4125,-4.4129,-4.4172,-4.4171,-4.412,-4.4121,-4.4122,-4.4123,0,0,0,0,0,0,0,-4.4143,-4.4145,-4.4179,-4.4155,-4.4151,-4.4137,-4.4136,-4.4162,-4.414,-4.4129,-4.4124,-4.4125,-4.4122,-4.4128,-4.4129,-4.4171,-4.412,-4.4122,-4.4123,-4.4124,-4.4261,-4.4263,0,0,0,0,0,0,-4.4146,-4.4145,-4.4179,-4.4179,-4.4141,-4.4139,-4.4138,-4.4149,-4.4139,-4.4136,-4.4127,-4.4122,-4.4125,-4.4127,-4.4129,-4.4196,-4.4122,-4.4124,-4.4125,-4.4258,-4.4261,-4.4264,0,0,0,0,0,0,-4.4145,-4.415,-4.4179,-4.4161,-4.4163,-4.4143,-4.4155,-4.415,-4.4155,-4.4138,-4.4134,-4.4137,-4.4124,-4.4126,-4.4161,-4.4195,-4.4125,-4.4127,-4.4255,-4.4259,-4.4263,-4.4331,0,0,0,0,0,0,-4.4144,-4.415,-4.4172,-4.4162,-4.4165,-4.4212,-4.4157,-4.4152,-4.4159,-4.4153,-4.4146,-4.4142,-4.4122,-4.4159,-4.4163,-4.4196,-4.4128,-4.4252,-4.4257,-4.4261,-4.4325,-4.4336,-4.4346,0,0,0,0,0,-4.4143,-4.4191,-4.4173,-4.4177,-4.4192,-4.4214,-4.4216,-4.4191,-4.4162,-4.4184,-4.4173,-4.4143,-4.419,-4.4163,-4.4168,-4.4202,-4.425,-4.4256,-4.4261,-4.4321,-4.4334,-4.4345,0,0,0,0,0,0,-4.4205,-4.4189,-4.4169,-4.4216,-4.4217,-4.4204,-4.4231,-4.4206,-4.4216,-4.4209,-4.4179,-4.4177,-4.4218,-4.4213,-4.4183,-4.4257,-4.4215,-4.4222,-4.4259,-4.4271,-4.4281,-4.4282,-4.413,0,0,0,0,0,-4.4224,-4.4244,-4.4229,-4.4271,-4.4273,-4.4252,-4.4261,-4.4242,-4.4242,-4.4242,-4.4233,-4.4234,-4.4249,-4.426,-4.4273,-4.4324,-4.4322,-4.435,-4.436,-4.4369,-4.4375,-4.4402,-4.4414,-4.4282,-4.4282,-4.4282,0,0,-4.4264,-4.4258,-4.4272,-4.4284,-4.4282,-4.4303,-4.4253,-4.4277,-4.4293,-4.4246,-4.4279,-4.4273,-4.4272,-4.4316,-4.4334,-4.4313,-4.4411,-4.4376,-4.4382,-4.4384,-4.4409,-4.4421,-4.4432,-4.4286,-4.4285,-4.4284,0,0,-4.4347,-4.4345,-4.438,-4.4379,-4.4378,-4.4364,-4.4372,-4.4364,-4.4358,-4.4391,-4.4356,-4.4374,-4.44,-4.4401,-4.4405,-4.4489,-4.4462,-4.4494,-4.4547,-4.4573,-4.4584,-4.4593,-4.4623,-4.4634,-4.45,-4.45,-4.45,0,-4.4397,-4.4427,-4.4401,-4.4428,-4.4434,-4.4392,-4.4428,-4.4429,-4.4432,-4.4437,-4.4412,-4.4445,-4.4442,-4.4485,-4.4506,-4.451,-4.4519,-4.4495,-4.4584,-4.4593,-4.4601,-4.463,-4.4641,-4.4504,-4.4504,-4.4503,-4.4503,0,-4.4488,-4.451,-4.4539,-4.4543,-4.4552,-4.4583,-4.4561,-4.4573,-4.4554,-4.4542,-4.4576,-4.457,-4.4582,-4.459,-4.4571,-4.4631,-4.4618,-4.459,-4.4547,-4.4618,-4.4644,-4.4655,-4.451,-4.4508,-4.4507,-4.4506,0,0,-4.4611,-4.46,-4.4611,-4.4613,-4.4608,-4.4625,-4.4653,-4.4665,-4.4676,-4.4679,-4.4703,-4.4727,-4.47,-4.4705,-4.4685,-4.4709,-4.4776,-4.4677,-4.4677,-4.4696,-4.4842,-4.4864,-4.4877,-4.4758,-4.476,-4.4761,-4.4842,0,-4.4692,-4.4741,-4.4718,-4.477,-4.4789,-4.475,-4.4776,-4.4776,-4.4766,-4.4781,-4.4769,-4.4787,-4.475,-4.4753,-4.4774,-4.4763,-4.4805,-4.4757,-4.4779,-4.4781,-4.4781,-4.489,-4.4913,-4.499,-4.4852,-4.4854,-4.4855,0,-4.4793,-4.4801,-4.4855,-4.4847,-4.4854,-4.4877,-4.4886,-4.4901,-4.49,-4.4891,-4.4896,-4.4871,-4.4899,-4.4856,-4.4894,-4.4862,-4.487,-4.4866,-4.4868,-4.4869,-4.4822,-4.4895,-4.5013,-4.5025,-4.4871,-4.487,-4.4868,0,-4.4877,-4.4901,-4.4937,-4.4939,-4.4931,-4.4948,-4.4945,-4.4942,-4.495,-4.4957,-4.4962,-4.4973,-4.4978,-4.4987,-4.4966,-4.4937,-4.5007,-4.4962,-4.5,-4.5001,-4.5017,-4.5016,-4.5139,-4.5021,-4.5021,-4.5021,-4.5021,0,-4.497,-4.5004,-4.4974,-4.4996,-4.5034,-4.5007,-4.5044,-4.5037,-4.5035,-4.5055,-4.5021,-4.5041,-4.5011,-4.5027,-4.5011,-4.5045,-4.5048,-4.5041,-4.5036,-4.5044,-4.5045,-4.5049,-4.5043,-4.5024,-4.5023,-4.5023,-4.5022,0,-4.507,-4.5052,-4.5088,-4.5077,-4.5075,-4.5103,-4.5094,-4.5113,-4.5101,-4.5126,-4.5131,-4.5111,-4.5129,-4.5108,-4.5124,-4.5113,-4.5159,-4.5146,-4.5159,-4.5156,-4.5195,-4.5192,-4.5325,-4.5341,-4.5213,-4.5214,-4.5216,0,-4.5131,-4.5157,-4.5149,-4.5159,-4.5159,-4.5177,-4.5185,-4.5159,-4.5169,-4.517,-4.519,-4.5204,-4.5215,-4.5244,-4.5232,-4.5243,-4.5231,-4.5277,-4.5232,-4.524,-4.5232,-4.5231,-4.5233,-4.5286,-4.5287,-4.5288,-4.5289,0,-4.524,-4.523,-4.5243,-4.5253,-4.5264,-4.5271,-4.5275,-4.5286,-4.5259,-4.5272,-4.5289,-4.5298,-4.5314,-4.5329,-4.5337,-4.5334,-4.5308,-4.5304,-4.5313,-4.5321,-4.5328,-4.5325,-4.5184,-4.5301,-4.53,-4.5299,-4.5298,-4.5298,-4.5323,-4.5344,-4.5342,-4.5358,-4.5358,-4.5363,-4.5381,-4.5371,-4.5385,-4.5396,-4.538,-4.5402,-4.54,-4.5409,-4.5409,-4.5425,-4.5406,-4.5419,-4.5423,-4.5427,-4.5433,-4.5326,-4.5427,-4.5426,-4.5426,-4.5426,-4.5426,0,-4.5431,-4.5427,-4.5442,-4.5449,-4.5462,-4.5436,-4.5439,-4.5452,-4.5471,-4.5472,-4.5483,-4.5504,-4.5518,-4.5506,-4.5518,-4.5534,-4.5522,-4.5538,-4.5537,-4.5537,-4.545,-4.544,-4.5547,-4.5547,-4.5547,-4.5547,-4.5547,-4.5547,-4.5488,-4.5523,-4.5512,-4.5546,-4.5543,-4.5564,-4.5568,-4.5572,-4.5573,-4.5597,-4.5609,-4.5601,-4.5597,-4.5609,-4.5621,-4.5617,-4.5623,-4.5644,-4.5636,-4.5555,-4.5543,-4.5531,-4.5522,-4.5645,-4.5645,-4.5721,-4.5722,-4.5722]}]]